Location: Praha
(50.0830°N, 14.4670°E)
Time: 07:31:37
(UTC+01:00)

N. Korean satellite - Visible Passes

Search period start: 27 January 2022 00:00
Search period end: 06 February 2022 00:00
Orbit: 447 x 490 km, 97.3° (Epoch: 26 January)

Date Brightness Start Highest point End Pass type
(mag) Time Alt. Az. Time Alt. Az. Time Alt. Az.
27 Jan 8.6 04:43:41 10° NE 04:46:52 28° E 04:48:42 18° SE visible
27 Jan 7.5 06:16:51 10° N 06:19:56 26° WNW 06:22:46 11° WSW visible
28 Jan 9.7 04:15:25 10° ENE 04:17:24 14° E 04:19:22 10° ESE visible
28 Jan 6.6 05:47:17 10° N 05:50:52 53° WNW 05:53:41 15° SSW visible
29 Jan 6.8 05:18:00 10° NNE 05:21:39 69° ESE 05:24:39 14° S visible
29 Jan 8.4 06:52:37 10° NNW 06:54:17 13° WNW 06:55:56 10° W visible
29 Jan 9.8 17:30:43 10° SW 17:32:45 15° W 17:34:48 10° NW visible
30 Jan 8.4 04:49:00 10° NNE 04:52:18 31° E 04:55:34 10° SSE visible
30 Jan 7.7 06:22:22 10° NNW 06:25:18 23° WNW 06:28:13 10° WSW visible
31 Jan 9.5 04:20:30 10° NE 04:22:48 16° E 04:25:05 10° SE visible
31 Jan 6.8 05:52:41 10° N 05:56:12 46° WNW 05:59:40 10° SW visible
01 Feb 6.6 05:23:17 10° NNE 05:26:57 80° ESE 05:30:34 10° S visible
01 Feb 8.6 06:58:20 10° NW 06:59:30 11° WNW 07:00:42 10° WNW visible
01 Feb 9.9 17:36:22 10° WSW 17:38:04 13° W 17:39:47 10° WNW visible
02 Feb 8.1 04:54:11 10° NNE 04:57:35 36° E 05:00:56 10° SSE visible
02 Feb 7.9 06:27:45 10° NNW 06:30:30 21° WNW 06:33:16 10° WSW visible
03 Feb 9.4 04:25:31 10° NE 04:28:04 18° E 04:30:35 10° SE visible
03 Feb 7.0 05:57:56 10° N 06:01:23 40° WNW 06:04:46 10° SW visible
04 Feb 6.4 05:28:27 10° NNE 05:32:06 88° WNW 05:35:43 10° SSW visible
04 Feb 10.1 17:42:02 10° WSW 17:43:15 11° W 17:44:31 10° WNW visible
05 Feb 7.8 04:59:15 10° NNE 05:02:43 41° E 05:06:07 10° S visible
05 Feb 8.0 06:32:59 10° NNW 06:35:34 19° WNW 06:38:08 10° WSW visible
